Location: Beneden-Haastrecht
(52.0012°N, 4.7557°E)
Time: 02:22:26
(UTC+00:00)

USA 307 - Pass Details

Date: 24 October 2020
Orbit: 569 x 579 km, 54.0° (Epoch: 23 November)

Event Time Altitude Azimuth Distance (km) Brightness Sun altitude
Rises 18:25:25 0° 286° (WNW) 2,790 8.0 -18.8°
Reaches altitude 10° 18:27:41 10° 287° (WNW) 1,888 6.7 -19.1°
Maximum altitude 18:31:59 83° 15° (NNE) 584 2.8 -19.8°
Enters shadow 18:32:54 54° 96° (E) 699 2.9 -19.9°
